Data No.,UTC Date,UTC Time,Latitude,Longitude,Course(deg),Temp(degC),Sal(psu)
21,2012/9/4,15:25:00,32-49.9900N,132-06.2700E,194,26.71,33.3553
22,2012/9/4,15:26:00,32-49.7900N,132-06.2100E,195,26.744,33.3365
23,2012/9/4,15:27:00,32-49.5900N,132-06.1500E,194,26.797,33.3179
24,2012/9/4,15:28:00,32-49.3900N,132-06.0800E,195,26.825,33.2987
25,2012/9/4,15:29:00,32-49.1900N,132-06.0200E,194,26.838,33.2838
26,2012/9/4,15:30:00,32-48.9900N,132-05.9600E,193,26.904,33.2723
27,2012/9/4,15:31:00,32-48.7800N,132-05.9000E,196,26.971,33.2587
28,2012/9/4,15:32:00,32-48.5800N,132-05.8300E,197,27.098,33.2436
29,2012/9/4,15:33:00,32-48.3700N,132-05.7500E,198,27.225,33.2305
30,2012/9/4,15:34:00,32-48.1900N,132-05.6800E,196,27.309,33.2089
31,2012/9/4,15:35:00,32-48.0000N,132-05.6200E,194,27.39,33.1871
32,2012/9/4,15:36:00,32-47.8000N,132-05.5500E,195,27.432,33.174
33,2012/9/4,15:37:00,32-47.6100N,132-05.4800E,196,27.476,33.1671
34,2012/9/4,15:38:00,32-47.4100N,132-05.4100E,195,27.515,33.1622
35,2012/9/4,15:39:00,32-47.2200N,132-05.3300E,197,27.562,33.153
36,2012/9/4,15:40:00,32-47.0000N,132-05.2600E,197,27.694,33.1595
37,2012/9/4,15:41:00,32-46.8000N,132-05.1800E,197,27.849,33.1707
38,2012/9/4,15:42:00,32-46.6100N,132-05.1100E,197,27.926,33.2116
39,2012/9/4,15:43:00,32-46.4100N,132-05.0400E,197,27.954,33.2404
40,2012/9/4,15:44:00,32-46.2300N,132-04.9700E,198,27.946,33.2569
41,2012/9/4,15:45:00,32-46.0400N,132-04.9000E,198,27.978,33.1999
42,2012/9/4,15:46:00,32-45.8400N,132-04.8200E,199,28.012,33.116
43,2012/9/4,15:47:00,32-45.6500N,132-04.7500E,199,28.054,33.0864
44,2012/9/4,15:48:00,32-45.4600N,132-04.6700E,198,28.094,33.091
45,2012/9/4,15:49:00,32-45.2600N,132-04.6100E,196,28.129,33.1197
46,2012/9/4,15:50:00,32-45.0700N,132-04.5300E,197,28.155,33.1427
47,2012/9/4,15:51:00,32-44.8700N,132-04.4600E,197,28.17,33.1535
48,2012/9/4,15:52:00,32-44.6800N,132-04.3800E,198,28.176,33.1611
49,2012/9/4,15:53:00,32-44.4800N,132-04.3100E,196,28.183,33.1763
50,2012/9/4,15:54:00,32-44.2900N,132-04.2400E,196,28.207,33.1976
51,2012/9/4,15:55:00,32-44.1000N,132-04.1700E,196,28.226,33.2012
52,2012/9/4,15:56:00,32-43.9000N,132-04.1000E,196,28.232,33.2031
53,2012/9/4,15:57:00,32-43.7100N,132-04.0300E,197,28.238,33.1982
54,2012/9/4,15:58:00,32-43.5200N,132-03.9500E,198,28.24,33.199
55,2012/9/4,15:59:00,32-43.3300N,132-03.8800E,199,28.251,33.1762
56,2012/9/4,16:00:00,32-43.1400N,132-03.8100E,196,28.264,33.1756
57,2012/9/4,16:01:00,32-42.9500N,132-03.7400E,197,28.282,33.1905
58,2012/9/4,16:02:00,32-42.7600N,132-03.6600E,196,28.293,33.2028
59,2012/9/4,16:03:00,32-42.5600N,132-03.5900E,194,28.298,33.2091
60,2012/9/4,16:04:00,32-42.3700N,132-03.5300E,196,28.291,33.2105
61,2012/9/4,16:05:00,32-42.1700N,132-03.4600E,198,28.283,33.2126
62,2012/9/4,16:06:00,32-41.9900N,132-03.3800E,198,28.276,33.2178
63,2012/9/4,16:07:00,32-41.7900N,132-03.3100E,200,28.268,33.2222
64,2012/9/4,16:08:00,32-41.6000N,132-03.2300E,199,28.268,33.2217
65,2012/9/4,16:09:00,32-41.4100N,132-03.1500E,200,28.281,33.2267
66,2012/9/4,16:10:00,32-41.2200N,132-03.0700E,200,28.294,33.2305
67,2012/9/4,16:11:00,32-41.0300N,132-02.9900E,198,28.304,33.2322
68,2012/9/4,16:12:00,32-40.8300N,132-02.9100E,198,28.305,33.2345
69,2012/9/4,16:13:00,32-40.6400N,132-02.8300E,198,28.294,33.2352
70,2012/9/4,16:14:00,32-40.4500N,132-02.7600E,197,28.286,33.2315
71,2012/9/4,16:15:00,32-40.2600N,132-02.6900E,198,28.292,33.2284
72,2012/9/4,16:16:00,32-40.0700N,132-02.6100E,199,28.302,33.2392
73,2012/9/4,16:17:00,32-39.8800N,132-02.5300E,200,28.312,33.252
74,2012/9/4,16:18:00,32-39.6900N,132-02.4500E,199,28.32,33.2578
75,2012/9/4,16:19:00,32-39.5000N,132-02.3700E,198,28.326,33.2599
76,2012/9/4,16:20:00,32-39.3100N,132-02.3000E,197,28.344,33.2596
77,2012/9/4,16:21:00,32-39.1200N,132-02.2200E,199,28.376,33.2629
78,2012/9/4,16:22:00,32-38.9300N,132-02.1400E,199,28.424,33.2783
79,2012/9/4,16:23:00,32-38.7400N,132-02.0600E,200,28.453,33.3023
80,2012/9/4,16:24:00,32-38.5500N,132-01.9700E,200,28.476,33.3306
81,2012/9/4,16:25:00,32-38.3600N,132-01.8900E,201,28.495,33.3461
82,2012/9/4,16:26:00,32-38.1700N,132-01.8100E,200,28.496,33.3626
83,2012/9/4,16:27:00,32-37.9800N,132-01.7200E,200,28.48,33.3793
84,2012/9/4,16:28:00,32-37.7700N,132-01.6300E,200,28.445,33.3962
85,2012/9/4,16:29:00,32-37.5900N,132-01.5500E,201,28.396,33.4195
86,2012/9/4,16:30:00,32-37.4000N,132-01.4600E,201,28.346,33.433
87,2012/9/4,16:31:00,32-37.2100N,132-01.3700E,201,28.331,33.4396
88,2012/9/4,16:32:00,32-37.0200N,132-01.2800E,200,28.327,33.459
89,2012/9/4,16:33:00,32-36.8300N,132-01.2000E,200,28.326,33.4655
90,2012/9/4,16:34:00,32-36.6400N,132-01.1100E,201,28.345,33.4707
91,2012/9/4,16:35:00,32-36.4500N,132-01.0300E,201,28.356,33.4745
92,2012/9/4,16:36:00,32-36.2600N,132-00.9400E,202,28.356,33.4811
93,2012/9/4,16:37:00,32-36.0700N,132-00.8500E,203,28.339,33.488
94,2012/9/4,16:38:00,32-35.8500N,132-00.7500E,200,28.308,33.4877
95,2012/9/4,16:39:00,32-35.6600N,132-00.6600E,200,28.281,33.4818
96,2012/9/4,16:40:00,32-35.4700N,132-00.5800E,201,28.259,33.4808
97,2012/9/4,16:41:00,32-35.2800N,132-00.5000E,200,28.243,33.4824
98,2012/9/4,16:42:00,32-35.0900N,132-00.4200E,198,28.238,33.4851
99,2012/9/4,16:43:00,32-34.9000N,132-00.3300E,199,28.232,33.4834
100,2012/9/4,16:44:00,32-34.7100N,132-00.2500E,202,28.224,33.4844
101,2012/9/4,16:45:00,32-34.5200N,132-00.1700E,201,28.222,33.4827
102,2012/9/4,16:46:00,32-34.3300N,132-00.0800E,203,28.218,33.4767
103,2012/9/4,16:47:00,32-34.1500N,131-59.9900E,202,28.213,33.4705
104,2012/9/4,16:48:00,32-33.9600N,131-59.9100E,201,28.209,33.462
105,2012/9/4,16:49:00,32-33.7700N,131-59.8200E,201,28.199,33.4561
106,2012/9/4,16:50:00,32-33.5800N,131-59.7400E,200,28.186,33.4506
107,2012/9/4,16:51:00,32-33.4000N,131-59.6500E,203,28.18,33.4433
108,2012/9/4,16:52:00,32-33.2100N,131-59.5600E,202,28.18,33.4364
109,2012/9/4,16:53:00,32-33.0500N,131-59.4900E,202,28.185,33.4281
110,2012/9/4,16:54:00,32-32.8300N,131-59.3900E,201,28.196,33.426
111,2012/9/4,16:55:00,32-32.6400N,131-59.3000E,200,28.207,33.4275
112,2012/9/4,16:56:00,32-32.4500N,131-59.2100E,201,28.218,33.4317
113,2012/9/4,16:57:00,32-32.2600N,131-59.1200E,201,28.229,33.4307
114,2012/9/4,16:58:00,32-32.0700N,131-59.0300E,203,28.237,33.4304
115,2012/9/4,16:59:00,32-31.8800N,131-58.9400E,201,28.244,33.4333
116,2012/9/4,17:00:00,32-31.6900N,131-58.8600E,201,28.249,33.4282
117,2012/9/4,17:01:00,32-31.5000N,131-58.7700E,203,28.253,33.4245
118,2012/9/4,17:02:00,32-31.3100N,131-58.6800E,200,28.257,33.4236
119,2012/9/4,17:03:00,32-31.1200N,131-58.5900E,201,28.263,33.4223
120,2012/9/4,17:04:00,32-30.9400N,131-58.5200E,200,28.272,33.417
121,2012/9/4,17:05:00,32-30.7300N,131-58.4300E,200,28.278,33.4107
122,2012/9/4,17:06:00,32-30.5400N,131-58.3400E,200,28.284,33.4017
123,2012/9/4,17:07:00,32-30.3500N,131-58.2600E,201,28.286,33.3902
124,2012/9/4,17:08:00,32-30.1600N,131-58.1700E,199,28.298,33.3752
125,2012/9/4,17:09:00,32-30.0000N,131-58.1000E,200,28.312,33.3585
126,2012/9/4,17:10:00,32-29.7800N,131-58.0100E,198,28.314,33.3426
127,2012/9/4,17:11:00,32-29.5900N,131-57.9400E,194,28.307,33.3224
128,2012/9/4,17:12:00,32-29.4200N,131-57.8900E,193,28.337,33.2947
129,2012/9/4,17:13:00,32-29.2300N,131-57.8200E,195,28.362,33.2463
130,2012/9/4,17:14:00,32-29.0100N,131-57.7600E,195,28.387,33.2275
131,2012/9/4,17:15:00,32-28.8200N,131-57.6900E,195,28.404,33.2077
132,2012/9/4,17:16:00,32-28.6500N,131-57.6400E,196,28.414,33.1919
133,2012/9/4,17:17:00,32-28.4600N,131-57.5800E,196,28.422,33.1851
134,2012/9/4,17:18:00,32-28.2700N,131-57.5100E,198,28.423,33.1833
135,2012/9/4,17:19:00,32-28.0800N,131-57.4300E,199,28.442,33.1836
136,2012/9/4,17:20:00,32-27.8900N,131-57.3600E,197,28.456,33.1869
137,2012/9/4,17:21:00,32-27.6900N,131-57.2900E,197,28.462,33.1984
138,2012/9/4,17:22:00,32-27.5000N,131-57.2100E,197,28.465,33.2063
139,2012/9/4,17:23:00,32-27.3000N,131-57.1400E,197,28.459,33.217
140,2012/9/4,17:24:00,32-27.1100N,131-57.0600E,198,28.436,33.2259
141,2012/9/4,17:25:00,32-26.9200N,131-56.9900E,199,28.416,33.232
142,2012/9/4,17:26:00,32-26.7300N,131-56.9200E,197,28.396,33.2397
143,2012/9/4,17:27:00,32-26.5300N,131-56.8500E,197,28.363,33.2448
144,2012/9/4,17:28:00,32-26.3400N,131-56.7800E,196,28.336,33.2443
145,2012/9/4,17:29:00,32-26.1400N,131-56.7100E,197,28.328,33.2365
146,2012/9/4,17:30:00,32-25.9500N,131-56.6400E,197,28.319,33.2281
147,2012/9/4,17:31:00,32-25.7500N,131-56.5700E,197,28.303,33.2268
148,2012/9/4,17:32:00,32-25.5500N,131-56.5000E,196,28.299,33.2255
149,2012/9/4,17:33:00,32-25.3400N,131-56.4300E,197,28.301,33.2262
150,2012/9/4,17:34:00,32-25.1500N,131-56.3600E,197,28.302,33.2236
151,2012/9/4,17:35:00,32-24.9500N,131-56.2900E,196,28.3,33.2196
152,2012/9/4,17:36:00,32-24.7500N,131-56.2300E,199,28.292,33.2156
153,2012/9/4,17:37:00,32-24.5900N,131-56.1700E,196,28.291,33.2145
154,2012/9/4,17:38:00,32-24.3700N,131-56.0900E,195,28.291,33.2128
155,2012/9/4,17:39:00,32-24.1700N,131-56.0200E,196,28.29,33.2085
156,2012/9/4,17:40:00,32-23.9800N,131-55.9500E,196,28.286,33.2052
157,2012/9/4,17:41:00,32-23.7900N,131-55.9000E,196,28.285,33.2047
158,2012/9/4,17:42:00,32-23.6000N,131-55.8400E,197,28.282,33.2063
159,2012/9/4,17:43:00,32-23.4100N,131-55.7700E,196,28.278,33.2086
160,2012/9/4,17:44:00,32-23.2300N,131-55.6900E,197,28.27,33.2096
161,2012/9/4,17:45:00,32-23.0400N,131-55.6200E,196,28.259,33.2131
162,2012/9/4,17:46:00,32-22.8500N,131-55.5500E,196,28.255,33.2135
163,2012/9/4,17:47:00,32-22.6600N,131-55.4800E,196,28.274,33.2125
164,2012/9/4,17:48:00,32-22.4700N,131-55.4100E,197,28.289,33.2125
165,2012/9/4,17:49:00,32-22.2700N,131-55.3400E,197,28.294,33.2122
166,2012/9/4,17:50:00,32-22.0800N,131-55.2700E,196,28.3,33.2135
167,2012/9/4,17:51:00,32-21.8800N,131-55.2000E,197,28.299,33.219
168,2012/9/4,17:52:00,32-21.6900N,131-55.1300E,196,28.292,33.2233
169,2012/9/4,17:53:00,32-21.5000N,131-55.0600E,198,28.291,33.2251
170,2012/9/4,17:54:00,32-21.3100N,131-54.9900E,198,28.29,33.2265
171,2012/9/4,17:55:00,32-21.0900N,131-54.9100E,197,28.289,33.2295
172,2012/9/4,17:56:00,32-20.8900N,131-54.8400E,197,28.296,33.2317
173,2012/9/4,17:57:00,32-20.7200N,131-54.7800E,197,28.293,33.235
174,2012/9/4,17:58:00,32-20.5300N,131-54.7200E,197,28.293,33.2378
175,2012/9/4,17:59:00,32-20.3400N,131-54.6500E,197,28.286,33.2405
176,2012/9/4,18:00:00,32-20.1500N,131-54.5800E,196,28.287,33.2406
177,2012/9/4,18:01:00,32-19.9500N,131-54.5200E,195,28.277,33.2435
178,2012/9/4,18:02:00,32-19.7600N,131-54.4500E,196,28.267,33.2459
179,2012/9/4,18:03:00,32-19.5700N,131-54.3800E,196,28.258,33.2456
180,2012/9/4,18:04:00,32-19.3700N,131-54.3100E,196,28.255,33.2443
181,2012/9/4,18:05:00,32-19.1800N,131-54.2500E,196,28.269,33.2386
182,2012/9/4,18:06:00,32-18.9900N,131-54.1800E,196,28.279,33.225
183,2012/9/4,18:07:00,32-18.7900N,131-54.1100E,195,28.278,33.21
184,2012/9/4,18:08:00,32-18.6000N,131-54.0500E,194,28.27,33.1911
185,2012/9/4,18:09:00,32-18.4100N,131-53.9800E,196,28.254,33.1599
186,2012/9/4,18:10:00,32-18.2100N,131-53.9200E,196,28.23,33.1642
187,2012/9/4,18:11:00,32-18.0200N,131-53.8600E,196,28.236,33.158
188,2012/9/4,18:12:00,32-17.8300N,131-53.7900E,197,28.247,33.1088
189,2012/9/4,18:13:00,32-17.6500N,131-53.7100E,199,28.261,33.0692
190,2012/9/4,18:14:00,32-17.4600N,131-53.6400E,198,28.267,33.0241
191,2012/9/4,18:15:00,32-17.2700N,131-53.5700E,198,28.269,33.0016
192,2012/9/4,18:16:00,32-17.0500N,131-53.4900E,197,28.266,33.0042
193,2012/9/4,18:17:00,32-16.8600N,131-53.4100E,198,28.246,33.0099
194,2012/9/4,18:18:00,32-16.6900N,131-53.3500E,199,28.234,33.015
195,2012/9/4,18:19:00,32-16.5100N,131-53.2800E,197,28.207,33.017
196,2012/9/4,18:20:00,32-16.3200N,131-53.2100E,198,28.205,33.0237
197,2012/9/4,18:21:00,32-16.1300N,131-53.1300E,198,28.186,33.0372
198,2012/9/4,18:22:00,32-15.9400N,131-53.0600E,197,28.137,33.0496
199,2012/9/4,18:23:00,32-15.7200N,131-52.9800E,198,28.042,33.055
200,2012/9/4,18:24:00,32-15.5300N,131-52.9000E,198,27.938,33.0472
201,2012/9/4,18:25:00,32-15.3700N,131-52.8300E,199,27.892,32.9983
202,2012/9/4,18:26:00,32-15.1600N,131-52.7600E,194,27.83,32.9497
203,2012/9/4,18:27:00,32-14.9900N,131-52.7200E,191,27.746,32.9457
204,2012/9/4,18:28:00,32-14.8000N,131-52.6800E,189,27.699,32.8723
205,2012/9/4,18:29:00,32-14.6000N,131-52.6300E,191,27.718,32.8311
206,2012/9/4,18:30:00,32-14.4100N,131-52.5800E,192,27.77,32.8592
207,2012/9/4,18:31:00,32-14.2200N,131-52.5300E,193,27.822,32.9547
208,2012/9/4,18:32:00,32-14.0300N,131-52.4800E,193,27.781,33.0197
209,2012/9/4,18:33:00,32-13.8400N,131-52.4300E,193,27.832,33.0444
210,2012/9/4,18:34:00,32-13.6500N,131-52.3800E,192,28.122,32.9883
211,2012/9/4,18:35:00,32-13.4600N,131-52.3300E,192,28.231,33.1972
212,2012/9/4,18:36:00,32-13.2700N,131-52.2800E,193,28.267,33.4562
213,2012/9/4,18:37:00,32-13.0800N,131-52.2200E,194,28.262,33.5544
214,2012/9/4,18:38:00,32-12.8900N,131-52.1700E,193,28.222,33.5813
215,2012/9/4,18:39:00,32-12.6900N,131-52.1100E,193,28.185,33.5736
216,2012/9/4,18:40:00,32-12.5000N,131-52.0600E,194,28.233,33.5608
217,2012/9/4,18:41:00,32-12.3200N,131-52.0000E,195,28.27,33.6046
218,2012/9/4,18:42:00,32-12.1300N,131-51.9300E,197,28.303,33.7305
219,2012/9/4,18:43:00,32-11.9500N,131-51.8500E,199,28.322,33.7777
220,2012/9/4,18:44:00,32-11.7700N,131-51.7700E,199,28.335,33.8048
221,2012/9/4,18:45:00,32-11.6000N,131-51.7000E,199,28.344,33.8122
222,2012/9/4,18:46:00,32-11.4200N,131-51.6200E,201,28.354,33.8149
223,2012/9/4,18:47:00,32-11.2400N,131-51.5400E,200,28.38,33.8213
224,2012/9/4,18:48:00,32-11.0600N,131-51.4700E,198,28.396,33.8292
225,2012/9/4,18:49:00,32-10.8800N,131-51.3900E,201,28.392,33.8405
226,2012/9/4,18:50:00,32-10.7100N,131-51.3100E,201,28.355,33.8422
227,2012/9/4,18:51:00,32-10.5300N,131-51.2300E,200,28.312,33.8341
228,2012/9/4,18:52:00,32-10.3600N,131-51.1500E,200,28.281,33.7735
229,2012/9/4,18:53:00,32-10.1800N,131-51.0700E,201,28.252,33.7085
230,2012/9/4,18:54:00,32-10.0000N,131-50.9900E,202,28.247,33.6496
231,2012/9/4,18:55:00,32-09.8200N,131-50.9100E,201,28.255,33.598
232,2012/9/4,18:56:00,32-09.6500N,131-50.8300E,201,28.268,33.5895
233,2012/9/4,18:57:00,32-09.4700N,131-50.7500E,200,28.274,33.5806
234,2012/9/4,18:58:00,32-09.2900N,131-50.6700E,200,28.277,33.6039
235,2012/9/4,18:59:00,32-09.1100N,131-50.5900E,201,28.289,33.6178
236,2012/9/4,19:00:00,32-08.9400N,131-50.5100E,202,28.294,33.6158
237,2012/9/4,19:01:00,32-08.7600N,131-50.4300E,200,28.312,33.5529
238,2012/9/4,19:02:00,32-08.5800N,131-50.3500E,202,28.299,33.5061
239,2012/9/4,19:03:00,32-08.4100N,131-50.2600E,203,28.28,33.4744
240,2012/9/4,19:04:00,32-08.2300N,131-50.1800E,201,28.241,33.4418
241,2012/9/4,19:05:00,32-08.0500N,131-50.1000E,201,28.221,33.4463
242,2012/9/4,19:06:00,32-07.8700N,131-50.0100E,202,28.219,33.4721
243,2012/9/4,19:07:00,32-07.6900N,131-49.9300E,202,28.16,33.513
244,2012/9/4,19:08:00,32-07.5100N,131-49.8400E,202,28.153,33.5327
245,2012/9/4,19:09:00,32-07.3300N,131-49.7600E,201,28.153,33.5574
246,2012/9/4,19:10:00,32-07.1500N,131-49.6700E,201,28.206,33.5077
247,2012/9/4,19:11:00,32-06.9800N,131-49.5800E,203,28.235,33.4799
248,2012/9/4,19:12:00,32-06.8000N,131-49.5000E,202,28.246,33.3783
249,2012/9/4,19:13:00,32-06.6200N,131-49.4100E,203,28.229,33.356
250,2012/9/4,19:14:00,32-06.4400N,131-49.3200E,202,28.255,33.3196
251,2012/9/4,19:15:00,32-06.2600N,131-49.2400E,203,28.27,33.2958
252,2012/9/4,19:16:00,32-06.0800N,131-49.1500E,202,28.257,33.3243
253,2012/9/4,19:17:00,32-05.9000N,131-49.0600E,201,28.246,33.3478
254,2012/9/4,19:18:00,32-05.7200N,131-48.9800E,201,28.247,33.3486
255,2012/9/4,19:19:00,32-05.5400N,131-48.9000E,202,28.241,33.3853
256,2012/9/4,19:20:00,32-05.3700N,131-48.8100E,203,28.26,33.3652
257,2012/9/4,19:21:00,32-05.1800N,131-48.7300E,203,28.244,33.3421
258,2012/9/4,19:22:00,32-05.0000N,131-48.6400E,202,28.236,33.3356
259,2012/9/4,19:23:00,32-04.8200N,131-48.5600E,201,28.223,33.3162
260,2012/9/4,19:24:00,32-04.6400N,131-48.4800E,201,28.252,33.3199
261,2012/9/4,19:25:00,32-04.4400N,131-48.3900E,201,28.266,33.336
262,2012/9/4,19:26:00,32-04.2500N,131-48.2900E,201,28.271,33.3613
263,2012/9/4,19:27:00,32-04.0700N,131-48.2100E,201,28.267,33.3647
264,2012/9/4,19:28:00,32-03.8800N,131-48.1300E,200,28.278,33.3445
265,2012/9/4,19:29:00,32-03.7400N,131-48.0500E,201,28.29,33.3389
266,2012/9/4,19:30:00,32-03.5500N,131-47.9700E,201,28.275,33.3528
267,2012/9/4,19:31:00,32-03.3700N,131-47.8800E,201,28.282,33.3524
268,2012/9/4,19:32:00,32-03.1900N,131-47.8000E,201,28.236,33.3293
269,2012/9/4,19:33:00,32-03.0000N,131-47.7100E,203,28.269,33.3188
270,2012/9/4,19:34:00,32-02.8200N,131-47.6200E,202,28.33,33.2992
271,2012/9/4,19:35:00,32-02.6100N,131-47.5200E,201,28.322,33.3594
272,2012/9/4,19:36:00,32-02.4200N,131-47.4400E,196,28.303,33.4168
273,2012/9/4,19:37:00,32-02.2200N,131-47.3900E,192,28.304,33.368
274,2012/9/4,19:38:00,32-02.0500N,131-47.3400E,192,28.312,33.3409
275,2012/9/4,19:39:00,32-01.8600N,131-47.2900E,193,28.347,33.3534
276,2012/9/4,19:40:00,32-01.6600N,131-47.2400E,193,28.362,33.3602
277,2012/9/4,19:41:00,32-01.4600N,131-47.1800E,194,28.346,33.4176
278,2012/9/4,19:42:00,32-01.2400N,131-47.1200E,193,28.326,33.4078
279,2012/9/4,19:43:00,32-01.0600N,131-47.0600E,193,28.376,33.3422
280,2012/9/4,19:44:00,32-00.8700N,131-47.0100E,194,28.423,33.3122
281,2012/9/4,19:45:00,32-00.6700N,131-46.9500E,193,28.462,33.4231
282,2012/9/4,19:46:00,32-00.4700N,131-46.8900E,193,28.457,33.5066
283,2012/9/4,19:47:00,32-00.2700N,131-46.8300E,193,28.41,33.5613
284,2012/9/4,19:48:00,32-00.0700N,131-46.7700E,194,28.384,33.5062
285,2012/9/4,19:49:00,31-59.8700N,131-46.7200E,194,28.352,33.4152
286,2012/9/4,19:50:00,31-59.6700N,131-46.6600E,193,28.323,33.3699
287,2012/9/4,19:51:00,31-59.4700N,131-46.6000E,193,28.305,33.3269
288,2012/9/4,19:52:00,31-59.2700N,131-46.5400E,193,28.317,33.3039
289,2012/9/4,19:53:00,31-59.0700N,131-46.4800E,194,28.379,33.3193
290,2012/9/4,19:54:00,31-58.8600N,131-46.4000E,192,28.515,33.3422
291,2012/9/4,19:55:00,31-58.6600N,131-46.3400E,192,28.463,33.4716
292,2012/9/4,19:56:00,31-58.4600N,131-46.2800E,192,28.477,33.5463
293,2012/9/4,19:57:00,31-58.2600N,131-46.2100E,195,28.511,33.4936
294,2012/9/4,19:58:00,31-58.0600N,131-46.1500E,198,28.411,33.5396
295,2012/9/4,19:59:00,31-57.8700N,131-46.0800E,197,28.353,33.5566
296,2012/9/4,20:00:00,31-57.6600N,131-46.0100E,198,28.404,33.4561
297,2012/9/4,20:01:00,31-57.4600N,131-45.9300E,199,28.424,33.4411
298,2012/9/4,20:02:00,31-57.2600N,131-45.8500E,198,28.469,33.5174
299,2012/9/4,20:03:00,31-57.0600N,131-45.7700E,198,28.474,33.5338
300,2012/9/4,20:04:00,31-56.8600N,131-45.6900E,198,28.436,33.5701
301,2012/9/4,20:05:00,31-56.6500N,131-45.6100E,199,28.396,33.555
302,2012/9/4,20:06:00,31-56.4500N,131-45.5400E,198,28.376,33.5183
303,2012/9/4,20:07:00,31-56.2100N,131-45.4300E,198,28.319,33.4934
304,2012/9/4,20:08:00,31-56.0400N,131-45.3600E,199,28.376,33.461
305,2012/9/4,20:09:00,31-55.8400N,131-45.2800E,197,28.438,33.4478
306,2012/9/4,20:10:00,31-55.6300N,131-45.2000E,197,28.505,33.5123
307,2012/9/4,20:11:00,31-55.4300N,131-45.1200E,197,28.602,33.5777
308,2012/9/4,20:12:00,31-55.2200N,131-45.0400E,198,28.669,33.6445
309,2012/9/4,20:13:00,31-55.0200N,131-44.9600E,200,28.7,33.7166
310,2012/9/4,20:14:00,31-54.8200N,131-44.8700E,198,28.71,33.7559
311,2012/9/4,20:15:00,31-54.6100N,131-44.7900E,198,28.724,33.7725
312,2012/9/4,20:16:00,31-54.4100N,131-44.7100E,197,28.731,33.7778
313,2012/9/4,20:17:00,31-54.2100N,131-44.6300E,197,28.702,33.7761
314,2012/9/4,20:18:00,31-54.0100N,131-44.5400E,197,28.669,33.774
315,2012/9/4,20:19:00,31-53.8000N,131-44.4600E,199,28.682,33.7538
316,2012/9/4,20:20:00,31-53.5900N,131-44.3800E,200,28.681,33.7396
317,2012/9/4,20:21:00,31-53.3800N,131-44.2900E,200,28.682,33.751
318,2012/9/4,20:22:00,31-53.1700N,131-44.2000E,200,28.668,33.7538
319,2012/9/4,20:23:00,31-52.9600N,131-44.1200E,199,28.616,33.7469
320,2012/9/4,20:24:00,31-52.7500N,131-44.0300E,199,28.572,33.7074
321,2012/9/4,20:25:00,31-52.5400N,131-43.9500E,198,28.553,33.6569
322,2012/9/4,20:26:00,31-52.3400N,131-43.8600E,197,28.528,33.6124
323,2012/9/4,20:27:00,31-52.1200N,131-43.7900E,195,28.496,33.5922
324,2012/9/4,20:28:00,31-51.9100N,131-43.7400E,188,28.467,33.5657
325,2012/9/4,20:29:00,31-51.6900N,131-43.7100E,185,28.48,33.5232
326,2012/9/4,20:30:00,31-51.4700N,131-43.6800E,186,28.477,33.5054
327,2012/9/4,20:31:00,31-51.2200N,131-43.6500E,185,28.474,33.5162
328,2012/9/4,20:32:00,31-51.0300N,131-43.6300E,186,28.472,33.5162
329,2012/9/4,20:33:00,31-50.8100N,131-43.5900E,191,28.456,33.5248
330,2012/9/4,20:34:00,31-50.5700N,131-43.5000E,197,28.401,33.5243
331,2012/9/4,20:35:00,31-50.3900N,131-43.4300E,199,28.411,33.5032
332,2012/9/4,20:36:00,31-50.1800N,131-43.3500E,199,28.43,33.4713
333,2012/9/4,20:37:00,31-49.9800N,131-43.2600E,199,28.392,33.4704
334,2012/9/4,20:38:00,31-49.7700N,131-43.1700E,199,28.348,33.4656
335,2012/9/4,20:39:00,31-49.5600N,131-43.0800E,199,28.317,33.4373
336,2012/9/4,20:40:00,31-49.3600N,131-42.9900E,197,28.317,33.4107
337,2012/9/4,20:41:00,31-49.1500N,131-42.9000E,199,28.328,33.381
338,2012/9/4,20:42:00,31-48.9500N,131-42.8200E,200,28.34,33.3679
339,2012/9/4,20:43:00,31-48.7400N,131-42.7300E,199,28.346,33.3521
340,2012/9/4,20:44:00,31-48.5400N,131-42.6400E,200,28.39,33.3649
341,2012/9/4,20:45:00,31-48.3300N,131-42.5500E,201,28.415,33.3816
342,2012/9/4,20:46:00,31-48.1300N,131-42.4600E,200,28.427,33.4104
343,2012/9/4,20:47:00,31-47.9300N,131-42.3700E,200,28.397,33.3946
344,2012/9/4,20:48:00,31-47.7300N,131-42.2800E,201,28.333,33.3546
345,2012/9/4,20:49:00,31-47.5200N,131-42.1900E,201,28.275,33.3187
346,2012/9/4,20:50:00,31-47.3200N,131-42.1000E,200,28.256,33.2928
347,2012/9/4,20:51:00,31-47.1100N,131-42.0100E,200,28.268,33.2613
348,2012/9/4,20:52:00,31-46.9100N,131-41.9200E,200,28.28,33.2406
349,2012/9/4,20:53:00,31-46.7000N,131-41.8300E,200,28.209,33.2681
350,2012/9/4,20:54:00,31-46.5000N,131-41.7400E,201,28.18,33.2736
351,2012/9/4,20:55:00,31-46.2900N,131-41.6400E,201,28.216,33.252
352,2012/9/4,20:56:00,31-46.0800N,131-41.5600E,199,28.206,33.2371
353,2012/9/4,20:57:00,31-45.8700N,131-41.4700E,199,28.128,33.2269
354,2012/9/4,20:58:00,31-45.6600N,131-41.3800E,200,28.155,33.2265
355,2012/9/4,20:59:00,31-45.4500N,131-41.3000E,199,28.174,33.2383
356,2012/9/4,21:00:00,31-45.2400N,131-41.2100E,198,28.146,33.231
357,2012/9/4,21:01:00,31-45.0300N,131-41.1300E,198,28.119,33.2254
358,2012/9/4,21:02:00,31-44.8300N,131-41.0500E,197,28.106,33.232
359,2012/9/4,21:03:00,31-44.6200N,131-40.9700E,198,28.089,33.2394
360,2012/9/4,21:04:00,31-44.4200N,131-40.9000E,197,28.082,33.2533
361,2012/9/4,21:05:00,31-44.2200N,131-40.8300E,196,28.097,33.2572
362,2012/9/4,21:06:00,31-44.0300N,131-40.7600E,194,28.089,33.2659
363,2012/9/4,21:07:00,31-43.8300N,131-40.7000E,194,28.102,33.2865
364,2012/9/4,21:08:00,31-43.6400N,131-40.6400E,194,28.112,33.277
365,2012/9/4,21:09:00,31-43.4500N,131-40.5800E,194,28.121,33.2585
366,2012/9/4,21:10:00,31-43.2600N,131-40.5200E,194,28.112,33.2371
367,2012/9/4,21:11:00,31-43.0800N,131-40.4600E,196,28.083,33.2509
368,2012/9/4,21:12:00,31-42.8900N,131-40.3900E,197,28.016,33.1887
369,2012/9/4,21:13:00,31-42.7100N,131-40.3300E,197,27.993,33.1058
370,2012/9/4,21:14:00,31-42.5300N,131-40.2600E,198,28.089,33.0169
371,2012/9/4,21:15:00,31-42.3500N,131-40.1900E,198,28.146,33.0445
372,2012/9/4,21:16:00,31-42.1700N,131-40.1200E,198,28.157,33.1523
373,2012/9/4,21:17:00,31-41.9900N,131-40.0500E,197,28.168,33.1812
374,2012/9/4,21:18:00,31-41.8100N,131-39.9800E,198,28.179,33.1458
375,2012/9/4,21:19:00,31-41.6300N,131-39.9100E,198,28.202,33.1826
376,2012/9/4,21:20:00,31-41.4400N,131-39.8400E,197,28.22,33.2027
377,2012/9/4,21:21:00,31-41.2600N,131-39.7600E,198,28.244,33.3014
378,2012/9/4,21:22:00,31-41.0800N,131-39.6900E,199,28.251,33.2905
379,2012/9/4,21:23:00,31-40.8900N,131-39.6200E,197,28.242,33.2573